Location: D�nning
(49.2479°N, 12.8491°E)
Time: 08:49:22
(UTC+00:00)

Cosmos 1805 - Pass Details

Date: 18 September 2020
Orbit: 524 x 531 km, 82.5° (Epoch: 24 October)

Event Time Altitude Azimuth Distance (km) Brightness Sun altitude
Exits shadow 19:00:26 31° 71° (ENE) 945 4.1 -17.6°
Drops below altitude 10° 19:03:22 10° 27° (NNE) 1,792 5.9 -18.0°
Sets 19:05:39 0° 18° (NNE) 2,689 6.9 -18.3°
